Simultaneous Nadir Overpasses (SNOs) Predictions

Prediction of SNOs between AURA and NPP Satellite Orbit:

Table of predicted SNOs for the next 14.0 days since TLE Epoch: 6/24/2023
Index Date (AURA) Time (AURA) Lat,Lon (AURA) SZA (AURA ) Date (NPP) Time (NPP) Lat,Lon (NPP) SZA (NPP ) Distance(km) Time Diff (sec)
1 06/25/2023 22:52:01 -79.63, -84.64 110.78 06/25/2023 22:51:03 -79.63, -84.76 110.71 2.63 58
2 06/25/2023 23:41:19 79.89, 84.96 68.83 06/25/2023 23:41:39 79.89, 84.98 68.81 0.60 20
3 06/28/2023 14:17:54 79.67,-135.87 69.30 06/28/2023 14:17:12 79.66,-136.00 69.35 2.78 42
4 06/28/2023 15:07:14 -79.90, 33.53 111.06 06/28/2023 15:07:50 -79.89, 33.42 111.07 2.16 36
5 07/01/2023 05:43:47 -79.75, 173.29 110.67 07/01/2023 05:43:21 -79.75, 173.26 110.65 0.70 26
6 07/01/2023 06:33:07 79.93, -17.70 69.06 07/01/2023 06:34:00 79.92, -17.85 69.05 2.97 53
7 07/03/2023 21:09:39 79.78, 122.04 69.51 07/03/2023 21:09:31 79.78, 121.92 69.53 2.38 8
8 07/03/2023 21:58:59 -80.01, -68.49 110.86 07/03/2023 22:00:09 -80.00, -68.59 110.89 2.19 70
9 07/06/2023 11:46:10 79.63, -98.17 69.99 07/06/2023 11:45:02 79.62, -98.31 70.07 2.99 68



Historial Predications of SNOs between AURA and NPP
